User: anonymous
Location: Caltech
(34.1382°N, 118.1253°W)
Time: 05:06:10
(UTC-07:00)
Language:

Uribyol 2 - Orbit

View from above orbital plane
View from above orbital plane
View from above satellite
View from above satellite

Ground track
Ground track

The orbit data is extracted from the following two-line orbital elements,

1 22828U 93061F   14232.41491688  .00000056  00000-0  38427-4 0  6822
2 22828 098.6527 177.6642 0011001 076.0403 284.2002 14.30330658 58427
Epoch (UTC): 20 August 2014 09:57:28
Eccentricity: 0.0011001
inclination: 98.6527°
perigee height: 783 km
apogee height: 798 km
right ascension of ascending node: 177.6642°
argument of perigee: 76.0403°
revolutions per day: 14.30330658
mean anomaly at epoch: 284.2002°
orbit number at epoch: 5842

The dashed part of the orbit path shows where the satellite is in the earth's shadow,  

DLR